QPF
0.00 0.01 0.01 0.01 0.01 0.01 0.00 0.00 0.00 0.00 0.00 0.00 0.00 0.00 0.00 0.00 0.00 0.00 0.00 0.00 0.00 0.00 0.00 0.00 0.00 0.01 0.02 0.02 0.06 0.04 0.00 0.00 0.00 0.00 0.00 0.00 0.00 0.01 0.00 0.00 0.00 0.00 0.00
0.00 0.00 0.01 0.00 0.03 0.05 0.04 0.03 0.01 0.00 0.00 0.00 0.00 0.00 0.00 0.00 0.00 0.00 0.00 0.00 0.00 0.00 0.01 0.01 0.00 0.00 0.02 0.02 0.01 0.00 0.00 0.00 0.00 0.00 0.00 0.00 0.00 0.00 0.00 0.01 0.01 0.00 0.00
0.00 0.00 0.01 0.00 0.01 0.05 0.05 0.03 0.03 0.01 0.00 0.00 0.00 0.00 0.00 0.00 0.00 0.00 0.00 0.00 0.00 0.00 0.03 0.01 0.00 0.00 0.00 0.00 0.00 0.00 0.00 0.00 0.00 0.00 0.00 0.00 0.00 0.00 0.02 0.03 0.01 0.00 0.00
0.00 0.00 0.01 0.01 0.02 0.03 0.05 0.06 0.03 0.04 0.02 0.01 0.02 0.01 0.00 0.00 0.00 0.00 0.00 0.00 0.00 0.00 0.01 0.00 0.00 0.00 0.00 0.00 0.00 0.00 0.01 0.01 0.00 0.00 0.00 0.00 0.00 0.01 0.00 0.00 0.00 0.00 0.00
0.00 0.00 0.00 0.02 0.04 0.03 0.01 0.04 0.03 0.04 0.05 0.04 0.02 0.00 0.00 0.00 0.00 0.01 0.01 0.00 0.00 0.00 0.00 0.00 0.00 0.00 0.00 0.00 0.00 0.00 0.00 0.00 0.00 0.00 0.00 0.00 0.00 0.00 0.00 0.00 0.00 0.00 0.00
0.00 0.00 0.02 0.06 0.03 0.05 0.01 0.01 0.02 0.04 0.02 0.03 0.04 0.01 0.00 0.00 0.00 0.01 0.04 0.01 0.00 0.00 0.00 0.00 0.00 0.00 0.00 0.00 0.00 0.00 0.00 0.00 0.00 0.00 0.00 0.00 0.00 0.00 0.00 0.00 0.00 0.00 0.00
0.00 0.00 0.00 0.10 0.11 0.04 0.03 0.01 0.00 0.02 0.03 0.02 0.02 0.03 0.01 0.00 0.00 0.00 0.00 0.01 0.02 0.00 0.00 0.00 0.00 0.00 0.00 0.00 0.00 0.00 0.00 0.00 0.00 0.00 0.00 0.00 0.00 0.00 0.00 0.00 0.00 0.00 0.00
0.00 0.00 0.00 0.02 0.06 0.03 0.03 0.02 0.01 0.01 0.01 0.01 0.00 0.01 0.01 0.01 0.00 0.00 0.00 0.01 0.02 0.00 0.00 0.00 0.00 0.00 0.00 0.00 0.00 0.00 0.00 0.00 0.00 0.00 0.00 0.00 0.00 0.00 0.00 0.00 0.00 0.00 0.00
0.00 0.00 0.00 0.00 0.04 0.04 0.01 0.00 0.00 0.02 0.00 0.00 0.00 0.00 0.00 0.00 0.00 0.00 0.00 0.02 0.02 0.02 0.00 0.00 0.00 0.00 0.00 0.00 0.00 0.00 0.00 0.00 0.00 0.00 0.00 0.00 0.00 0.00 0.00 0.00 0.00 0.00 0.00
0.00 0.00 0.00 0.00 0.00 0.00 0.00 0.01 0.01 0.01 0.01 0.00 0.00 0.00 0.00 0.00 0.00 0.00 0.00 0.01 0.01 0.03 0.01 0.00 0.00 0.00 0.00 0.00 0.00 0.00 0.00 0.00 0.00 0.00 0.00 0.00 0.00 0.00 0.00 0.00 0.00 0.00 0.00
0.00 0.00 0.00 0.00 0.00 0.00 0.00 0.01 0.01 0.00 0.00 0.00 0.00 0.00 0.00 0.00 0.00 0.00 0.00 0.00 0.00 0.01 0.01 0.00 0.00 0.00 0.00 0.00 0.00 0.00 0.00 0.00 0.00 0.00 0.00 0.00 0.00 0.00 0.00 0.00 0.00 0.00 0.00
0.00 0.00 0.00 0.00 0.00 0.00 0.00 0.00 0.02 0.04 0.01 0.00 0.00 0.00 0.00 0.00 0.00 0.00 0.00 0.00 0.00 0.00 0.00 0.00 0.00 0.00 0.00 0.00 0.00 0.00 0.00 0.00 0.00 0.00 0.00 0.00 0.00 0.00 0.00 0.00 0.00 0.00 0.00
0.00 0.00 0.00 0.00 0.00 0.00 0.00 0.00 0.00 0.04 0.03 0.01 0.00 0.00 0.00 0.00 0.00 0.00 0.00 0.00 0.00 0.00 0.00 0.00 0.00 0.00 0.00 0.00 0.00 0.00 0.00 0.00 0.00 0.00 0.00 0.00 0.00 0.00 0.00 0.00 0.00 0.00 0.00
0.00 0.00 0.00 0.00 0.00 0.00 0.00 0.00 0.00 0.01 0.04 0.05 0.05 0.02 0.00 0.00 0.00 0.00 0.00 0.00 0.00 0.00 0.00 0.00 0.00 0.00 0.00 0.00 0.00 0.00 0.00 0.00 0.00 0.00 0.00 0.00 0.00 0.00 0.00 0.00 0.00 0.00 0.00
0.00 0.00 0.00 0.00 0.00 0.00 0.00 0.00 0.00 0.00 0.01 0.05 0.08 0.05 0.02 0.00 0.00 0.00 0.00 0.00 0.00 0.00 0.00 0.00 0.00 0.00 0.00 0.00 0.00 0.00 0.00 0.00 0.00 0.00 0.00 0.00 0.00 0.00 0.00 0.00 0.00 0.00 0.00
0.00 0.00 0.00 0.00 0.00 0.00 0.00 0.00 0.00 0.00 0.00 0.00 0.03 0.06 0.04 0.02 0.00 0.00 0.00 0.00 0.00 0.00 0.00 0.00 0.00 0.00 0.00 0.00 0.00 0.00 0.00 0.00 0.00 0.00 0.00 0.00 0.00 0.00 0.00 0.00 0.00 0.00 0.00
0.00 0.00 0.00 0.00 0.00 0.00 0.00 0.00 0.00 0.00 0.00 0.00 0.00 0.02 0.05 0.03 0.01 0.02 0.01 0.00 0.00 0.02 0.02 0.00 0.00 0.00 0.00 0.00 0.00 0.00 0.00 0.00 0.00 0.00 0.00 0.00 0.00 0.00 0.00 0.00 0.00 0.00 0.00
0.00 0.00 0.00 0.00 0.00 0.00 0.00 0.00 0.00 0.00 0.00 0.00 0.00 0.00 0.03 0.06 0.06 0.06 0.04 0.01 0.01 0.04 0.08 0.04 0.00 0.00 0.00 0.00 0.00 0.00 0.00 0.00 0.00 0.00 0.00 0.00 0.00 0.00 0.00 0.00 0.00 0.00 0.00
0.00 0.00 0.00 0.00 0.00 0.00 0.00 0.00 0.00 0.00 0.00 0.00 0.00 0.00 0.00 0.02 0.06 0.10 0.11 0.07 0.04 0.06 0.10 0.08 0.02 0.00 0.00 0.00 0.00 0.00 0.00 0.00 0.00 0.00 0.00 0.00 0.00 0.00 0.00 0.00 0.00 0.00 0.00
0.00 0.00 0.00 0.00 0.00 0.00 0.00 0.00 0.00 0.00 0.00 0.00 0.00 0.00 0.00 0.00 0.02 0.06 0.10 0.12 0.13 0.12 0.06 0.06 0.02 0.02 0.01 0.00 0.01 0.00 0.00 0.00 0.00 0.00 0.00 0.00 0.00 0.00 0.00 0.00 0.00 0.00 0.00
0.00 0.00 0.00 0.00 0.00 0.00 0.00 0.00 0.00 0.00 0.00 0.00 0.00 0.00 0.00 0.00 0.00 0.03 0.05 0.10 0.12 0.14 0.09 0.11 0.14 0.16 0.08 0.05 0.04 0.01 0.00 0.00 0.00 0.00 0.00 0.00 0.00 0.00 0.00 0.00 0.00 0.00 0.00
0.00 0.00 0.00 0.00 0.00 0.00 0.00 0.00 0.00 0.00 0.00 0.00 0.00 0.00 0.00 0.00 0.00 0.01 0.03 0.06 0.13 0.16 0.20 0.23 0.19 0.15 0.12 0.10 0.07 0.04 0.04 0.02 0.00 0.00 0.00 0.00 0.00 0.00 0.00 0.00 0.00 0.00 0.00
0.00 0.00 0.00 0.00 0.00 0.00 0.00 0.00 0.00 0.00 0.00 0.00 0.00 0.00 0.00 0.00 0.00 0.00 0.01 0.03 0.07 0.12 0.16 0.22 0.25 0.22 0.18 0.16 0.13 0.08 0.06 0.02 0.01 0.01 0.00 0.00 0.00 0.00 0.00 0.00 0.00 0.00 0.00
0.00 0.00 0.00 0.00 0.00 0.00 0.00 0.00 0.00 0.00 0.00 0.00 0.00 0.00 0.00 0.00 0.00 0.00 0.00 0.01 0.04 0.07 0.12 0.11 0.16 0.25 0.21 0.14 0.18 0.14 0.10 0.04 0.04 0.04 0.02 0.01 0.00 0.00 0.00 0.00 0.00 0.00 0.00
0.00 0.00 0.00 0.00 0.00 0.00 0.00 0.00 0.00 0.00 0.00 0.00 0.00 0.00 0.00 0.00 0.00 0.00 0.00 0.00 0.01 0.05 0.09 0.12 0.13 0.15 0.14 0.13 0.07 0.07 0.08 0.09 0.08 0.10 0.07 0.05 0.04 0.01 0.00 0.00 0.00 0.00 0.00
0.00 0.00 0.00 0.00 0.00 0.00 0.00 0.00 0.00 0.00 0.00 0.00 0.00 0.00 0.00 0.00 0.00 0.00 0.01 0.01 0.01 0.02 0.05 0.09 0.16 0.17 0.16 0.13 0.12 0.12 0.09 0.05 0.05 0.08 0.07 0.05 0.07 0.04 0.03 0.00 0.00 0.00 0.00
MSLP
1014.42 1013.94 1013.79 1013.87 1014.05 1014.32 1014.51 1014.58 1014.72 1014.86 1015.05 1015.14 1015.26 1015.44 1015.54 1015.61 1015.67 1015.69 1015.82 1015.84 1015.90 1015.98 1016.12 1016.16 1016.18 1016.25 1016.31 1016.41 1016.42 1016.36 1016.53 1016.74 1016.73 1016.77 1016.79 1016.73 1016.61 1016.75 1016.90 1016.98 1017.03 1017.03 1017.07
1014.62 1013.79 1013.74 1013.89 1014.07 1014.30 1014.45 1014.73 1014.88 1015.01 1015.17 1015.26 1015.37 1015.59 1015.70 1015.81 1015.83 1015.89 1015.90 1016.01 1016.06 1016.05 1016.10 1016.21 1016.37 1016.43 1016.52 1016.62 1016.65 1016.73 1016.70 1016.99 1017.13 1017.04 1017.01 1016.99 1016.92 1016.97 1017.13 1017.26 1017.30 1017.30 1017.36
1014.46 1013.73 1013.69 1013.85 1014.08 1014.24 1014.52 1014.74 1014.90 1015.07 1015.27 1015.41 1015.50 1015.64 1015.87 1015.95 1016.01 1016.02 1016.09 1016.10 1016.15 1016.18 1016.27 1016.33 1016.49 1016.65 1016.77 1016.83 1016.89 1016.88 1017.04 1017.18 1017.27 1017.34 1017.27 1017.26 1017.22 1017.21 1017.38 1017.43 1017.37 1017.50 1017.56
1014.34 1013.87 1013.72 1013.83 1014.06 1014.28 1014.53 1014.83 1014.98 1015.11 1015.29 1015.38 1015.49 1015.65 1015.82 1015.97 1016.04 1016.09 1016.15 1016.21 1016.26 1016.27 1016.39 1016.54 1016.72 1016.83 1016.89 1017.00 1017.04 1017.08 1017.22 1017.37 1017.48 1017.53 1017.56 1017.45 1017.42 1017.40 1017.46 1017.56 1017.61 1017.65 1017.70
1014.66 1014.19 1013.83 1013.97 1014.10 1014.31 1014.49 1014.79 1015.00 1015.14 1015.39 1015.43 1015.53 1015.63 1015.73 1015.97 1016.03 1016.09 1016.15 1016.21 1016.29 1016.40 1016.56 1016.80 1016.94 1017.04 1017.07 1017.10 1017.16 1017.27 1017.32 1017.39 1017.42 1017.56 1017.73 1017.70 1017.67 1017.68 1017.79 1017.85 1017.88 1017.93 1017.96
1015.00 1014.52 1014.12 1014.07 1014.27 1014.37 1014.57 1014.68 1014.88 1015.08 1015.25 1015.42 1015.58 1015.62 1015.63 1015.91 1016.01 1016.07 1016.17 1016.21 1016.37 1016.53 1016.65 1016.86 1017.03 1017.17 1017.22 1017.25 1017.25 1017.31 1017.40 1017.46 1017.42 1017.60 1017.86 1017.84 1017.88 1017.86 1017.97 1018.03 1018.05 1018.06 1018.09
1015.42 1014.84 1014.58 1014.26 1014.26 1014.40 1014.58 1014.67 1014.80 1014.94 1015.16 1015.36 1015.42 1015.57 1015.60 1015.77 1015.91 1016.09 1016.13 1016.25 1016.40 1016.50 1016.68 1016.87 1017.01 1017.16 1017.28 1017.31 1017.32 1017.41 1017.55 1017.65 1017.65 1017.80 1017.93 1017.98 1017.95 1017.93 1018.08 1018.18 1018.21 1018.23 1018.26
1015.70 1015.34 1014.97 1014.74 1014.47 1014.45 1014.48 1014.64 1014.78 1014.92 1015.01 1015.25 1015.37 1015.44 1015.57 1015.65 1015.80 1016.02 1016.18 1016.25 1016.35 1016.45 1016.59 1016.80 1017.01 1017.15 1017.24 1017.26 1017.30 1017.35 1017.52 1017.69 1017.76 1017.94 1018.00 1017.95 1017.82 1017.86 1018.02 1018.16 1018.22 1018.26 1018.30
1015.83 1015.60 1015.39 1015.15 1014.84 1014.62 1014.61 1014.66 1014.76 1014.83 1014.98 1015.05 1015.24 1015.37 1015.44 1015.57 1015.68 1015.75 1015.96 1016.17 1016.28 1016.41 1016.58 1016.83 1016.99 1017.14 1017.24 1017.29 1017.32 1017.34 1017.43 1017.63 1017.81 1017.90 1017.94 1017.87 1017.77 1017.84 1017.97 1018.09 1018.19 1018.25 1018.32
1016.11 1015.96 1015.67 1015.43 1015.25 1015.06 1014.86 1014.70 1014.79 1014.79 1014.84 1014.91 1015.01 1015.18 1015.27 1015.42 1015.54 1015.65 1015.71 1015.88 1016.12 1016.34 1016.50 1016.71 1016.95 1017.11 1017.23 1017.28 1017.28 1017.33 1017.38 1017.51 1017.74 1017.73 1017.75 1017.77 1017.65 1017.69 1017.83 1017.97 1018.09 1018.18 1018.30
1016.33 1016.20 1016.05 1015.78 1015.49 1015.17 1014.92 1014.78 1014.75 1014.72 1014.78 1014.81 1014.92 1015.06 1015.14 1015.31 1015.35 1015.44 1015.57 1015.66 1015.80 1016.01 1016.28 1016.51 1016.73 1016.94 1017.12 1017.22 1017.28 1017.34 1017.43 1017.56 1017.68 1017.60 1017.56 1017.49 1017.44 1017.48 1017.66 1017.83 1017.98 1018.09 1018.20
1016.74 1016.34 1016.17 1016.05 1015.80 1015.43 1015.04 1014.86 1014.85 1014.75 1014.59 1014.65 1014.77 1014.84 1015.01 1015.15 1015.21 1015.22 1015.31 1015.45 1015.59 1015.78 1015.99 1016.21 1016.44 1016.68 1016.94 1017.16 1017.27 1017.33 1017.49 1017.51 1017.57 1017.43 1017.37 1017.30 1017.21 1017.23 1017.44 1017.63 1017.80 1017.90 1018.01
1016.67 1016.44 1016.09 1015.92 1015.68 1015.61 1015.33 1015.03 1014.92 1014.67 1014.62 1014.48 1014.49 1014.64 1014.79 1014.86 1015.02 1015.15 1015.25 1015.35 1015.46 1015.58 1015.81 1015.99 1016.19 1016.44 1016.70 1016.90 1017.09 1017.22 1017.27 1017.41 1017.38 1017.35 1017.17 1017.13 1016.96 1016.93 1017.06 1017.23 1017.41 1017.61 1017.77
1016.80 1016.41 1016.01 1015.62 1015.54 1015.33 1015.28 1015.22 1014.88 1014.76 1014.47 1014.36 1014.27 1014.26 1014.51 1014.66 1014.76 1014.86 1015.00 1015.08 1015.21 1015.29 1015.52 1015.64 1015.86 1016.08 1016.38 1016.59 1016.67 1016.85 1016.90 1016.95 1016.94 1016.91 1016.84 1016.82 1016.74 1016.64 1016.77 1016.95 1017.10 1017.27 1017.37
1017.26 1016.87 1016.35 1015.90 1015.49 1015.18 1015.13 1015.03 1014.92 1014.74 1014.49 1014.25 1014.18 1014.11 1014.01 1014.06 1014.28 1014.24 1014.41 1014.66 1014.84 1014.94 1015.11 1015.36 1015.51 1015.74 1016.04 1016.27 1016.44 1016.49 1016.54 1016.56 1016.64 1016.68 1016.56 1016.46 1016.54 1016.39 1016.34 1016.45 1016.65 1016.80 1016.93
1017.55 1017.08 1016.55 1016.02 1015.60 1015.24 1014.92 1014.71 1014.59 1014.38 1014.15 1014.00 1013.88 1013.73 1013.67 1013.50 1013.48 1013.66 1013.87 1013.98 1014.25 1014.45 1014.65 1014.91 1015.14 1015.45 1015.58 1015.74 1016.07 1016.05 1016.01 1015.98 1015.99 1016.13 1016.15 1016.13 1016.28 1016.19 1016.13 1016.14 1016.21 1016.36 1016.53
1017.90 1017.32 1016.77 1016.24 1015.59 1015.41 1015.00 1014.42 1014.05 1013.82 1013.61 1013.71 1013.45 1013.32 1013.19 1013.18 1013.00 1012.92 1013.33 1013.31 1013.32 1013.61 1013.91 1014.42 1014.76 1015.01 1015.32 1015.35 1015.50 1015.47 1015.44 1015.43 1015.44 1015.57 1015.63 1015.79 1015.76 1015.93 1015.93 1015.87 1015.97 1016.01 1016.06
1017.86 1017.39 1016.80 1016.37 1015.83 1015.38 1014.89 1014.35 1013.79 1013.41 1013.21 1013.08 1012.99 1012.80 1012.69 1012.59 1012.62 1012.55 1012.73 1012.66 1012.44 1012.75 1013.06 1013.73 1014.01 1014.41 1014.66 1014.79 1014.80 1014.77 1014.77 1014.71 1014.74 1014.77 1014.89 1015.12 1015.30 1015.40 1015.48 1015.53 1015.49 1015.60 1015.63
1017.80 1017.32 1016.81 1016.28 1015.82 1015.19 1014.56 1013.98 1013.49 1012.95 1012.71 1012.45 1012.39 1012.33 1012.19 1012.05 1011.89 1012.09 1012.10 1011.96 1011.75 1012.18 1012.60 1013.03 1013.42 1013.55 1013.81 1014.06 1014.02 1014.11 1014.11 1014.11 1014.02 1014.04 1014.20 1014.41 1014.58 1014.75 1014.91 1014.89 1014.94 1014.99 1015.12
1017.76 1017.24 1016.66 1016.08 1015.54 1014.99 1014.42 1013.65 1013.19 1012.73 1012.28 1011.98 1011.83 1011.69 1011.66 1011.57 1011.46 1011.56 1011.76 1011.72 1011.63 1011.72 1012.03 1012.37 1012.57 1012.83 1012.81 1012.98 1013.18 1013.27 1013.46 1013.43 1013.31 1013.30 1013.51 1013.60 1013.84 1013.97 1014.14 1014.29 1014.41 1014.47 1014.45
1017.40 1016.83 1016.24 1015.63 1014.96 1014.52 1014.11 1013.58 1012.98 1012.51 1011.86 1011.50 1011.28 1011.16 1011.04 1010.97 1010.99 1010.94 1011.17 1011.38 1011.38 1011.35 1011.21 1011.42 1011.67 1012.11 1012.42 1012.38 1012.90 1013.01 1013.02 1012.97 1013.00 1012.82 1012.82 1013.04 1013.14 1013.24 1013.54 1013.55 1013.65 1013.77 1013.80
1017.08 1016.51 1016.06 1015.55 1014.91 1014.21 1013.66 1013.25 1012.79 1012.25 1011.46 1010.90 1010.59 1010.52 1010.44 1010.39 1010.37 1010.53 1010.68 1010.78 1010.75 1010.98 1010.94 1011.02 1010.95 1011.10 1011.36 1011.65 1012.02 1012.58 1012.62 1012.75 1012.51 1012.05 1012.18 1012.29 1012.40 1012.51 1012.72 1012.77 1012.93 1012.97 1013.04
1016.82 1016.31 1015.84 1015.17 1014.41 1013.70 1013.08 1012.74 1012.24 1011.80 1011.31 1010.97 1010.69 1010.33 1010.13 1009.98 1009.88 1009.93 1010.18 1010.33 1010.43 1010.45 1010.24 1010.22 1010.26 1009.70 1009.87 1010.29 1010.67 1011.15 1011.85 1011.57 1011.79 1011.37 1011.48 1011.57 1011.76 1012.00 1012.01 1011.92 1012.09 1012.20 1012.37
1016.79 1016.22 1015.46 1014.56 1013.82 1013.03 1012.40 1012.11 1011.73 1011.61 1011.32 1010.76 1010.47 1010.04 1009.77 1009.62 1009.68 1009.43 1009.68 1009.90 1009.99 1009.92 1009.81 1009.59 1009.37 1009.29 1007.58 1009.22 1010.20 1010.41 1010.56 1010.78 1011.27 1011.51 1011.12 1011.24 1011.19 1011.42 1011.46 1011.44 1011.47 1011.44 1011.58
1016.82 1016.07 1015.24 1014.21 1013.13 1012.39 1011.86 1011.56 1011.22 1011.07 1010.75 1010.34 1010.23 1010.04 1009.69 1009.44 1009.36 1009.29 1009.36 1009.53 1009.56 1009.49 1009.21 1009.08 1008.77 1008.45 1008.20 1008.54 1009.05 1009.71 1010.08 1010.34 1010.37 1010.75 1010.97 1010.99 1010.84 1010.81 1011.07 1011.01 1010.94 1010.77 1010.75
1016.71 1016.00 1015.08 1013.89 1012.35 1011.78 1011.38 1010.97 1010.88 1010.81 1010.61 1010.49 1010.17 1010.01 1009.87 1009.47 1009.25 1009.25 1009.15 1009.15 1009.06 1008.88 1008.60 1008.45 1008.20 1008.13 1007.98 1008.11 1008.25 1008.55 1008.83 1009.14 1009.25 1009.85 1010.23 1010.47 1010.50 1010.05 1010.50 1010.57 1010.23 1010.15 1010.02
Thickness
5751 5756 5757 5757 5756 5755 5755 5755 5755 5754 5754 5754 5753 5753 5753 5753 5753 5753 5752 5752 5751 5751 5750 5749 5748 5747 5746 5745 5744 5745 5743 5741 5741 5741 5741 5740 5740 5739 5737 5736 5735 5734 5733
5749 5755 5756 5755 5754 5752 5753 5752 5751 5751 5751 5751 5750 5749 5750 5749 5750 5750 5750 5749 5749 5749 5748 5747 5746 5746 5744 5743 5742 5742 5742 5740 5738 5739 5739 5739 5739 5737 5735 5733 5732 5731 5730
5749 5755 5755 5754 5753 5751 5749 5749 5748 5748 5747 5747 5747 5747 5746 5746 5746 5747 5747 5747 5747 5746 5746 5745 5744 5743 5742 5742 5741 5741 5739 5738 5737 5736 5736 5736 5736 5735 5733 5731 5731 5729 5728
5747 5751 5752 5753 5751 5749 5747 5746 5745 5744 5744 5744 5744 5743 5743 5743 5743 5744 5744 5744 5744 5744 5743 5742 5741 5740 5740 5740 5739 5739 5737 5735 5734 5733 5733 5733 5733 5732 5731 5729 5728 5727 5726
5743 5746 5749 5749 5748 5747 5746 5744 5743 5742 5740 5741 5740 5740 5740 5739 5740 5740 5741 5742 5742 5741 5740 5738 5737 5736 5737 5737 5736 5736 5735 5734 5734 5732 5731 5731 5730 5729 5728 5727 5726 5725 5724
5737 5741 5744 5745 5744 5743 5743 5743 5741 5741 5740 5739 5738 5738 5738 5736 5736 5737 5737 5738 5738 5737 5737 5735 5734 5733 5733 5733 5733 5733 5733 5732 5733 5731 5728 5728 5727 5725 5724 5723 5723 5722 5721
5730 5734 5736 5739 5741 5740 5739 5740 5739 5739 5738 5736 5736 5735 5735 5733 5732 5731 5732 5733 5733 5734 5732 5731 5730 5730 5729 5729 5729 5729 5728 5727 5728 5728 5726 5725 5724 5723 5721 5720 5719 5718 5717
5722 5726 5728 5731 5734 5735 5736 5736 5735 5735 5735 5734 5733 5733 5732 5731 5729 5727 5726 5727 5727 5728 5728 5727 5725 5725 5725 5725 5725 5725 5725 5723 5724 5723 5722 5722 5721 5720 5719 5717 5716 5715 5714
5715 5718 5721 5723 5726 5729 5729 5730 5731 5730 5730 5731 5730 5730 5730 5728 5726 5725 5724 5723 5723 5722 5722 5721 5720 5720 5720 5720 5720 5721 5721 5720 5720 5719 5718 5718 5718 5716 5715 5714 5712 5711 5710
5706 5709 5712 5715 5716 5719 5722 5724 5724 5726 5726 5726 5727 5727 5726 5725 5724 5723 5723 5721 5719 5718 5718 5717 5715 5714 5714 5714 5715 5716 5716 5716 5715 5716 5715 5715 5714 5713 5711 5710 5708 5707 5705
5697 5700 5703 5705 5708 5711 5714 5717 5718 5719 5720 5722 5722 5721 5722 5721 5721 5721 5721 5720 5718 5716 5714 5712 5711 5710 5710 5710 5710 5710 5710 5711 5710 5711 5711 5711 5710 5710 5708 5706 5704 5703 5701
5685 5691 5694 5696 5700 5702 5706 5709 5711 5712 5715 5716 5716 5717 5716 5716 5716 5717 5717 5716 5716 5714 5712 5710 5707 5706 5705 5704 5704 5705 5705 5705 5705 5706 5707 5706 5706 5706 5704 5702 5700 5699 5698
5682 5683 5687 5690 5693 5695 5698 5702 5704 5706 5708 5710 5710 5710 5710 5711 5711 5710 5711 5712 5711 5710 5710 5708 5705 5703 5702 5701 5700 5700 5701 5701 5701 5701 5702 5701 5702 5701 5700 5699 5697 5695 5693
5677 5681 5684 5687 5688 5691 5692 5694 5696 5698 5700 5703 5704 5704 5704 5705 5705 5705 5705 5706 5706 5706 5705 5705 5704 5701 5699 5697 5697 5697 5698 5698 5698 5698 5699 5698 5698 5697 5696 5695 5693 5692 5691
5670 5673 5677 5681 5683 5684 5686 5687 5688 5691 5692 5694 5695 5697 5698 5700 5701 5701 5701 5700 5700 5701 5700 5700 5699 5698 5695 5694 5693 5693 5694 5694 5695 5693 5694 5694 5693 5693 5693 5692 5690 5689 5688
5661 5664 5668 5673 5675 5677 5680 5682 5683 5686 5688 5689 5689 5690 5691 5695 5696 5696 5697 5696 5695 5695 5695 5694 5693 5693 5692 5691 5690 5690 5690 5691 5692 5692 5690 5690 5688 5688 5687 5686 5685 5685 5683
5650 5654 5658 5662 5666 5669 5672 5675 5678 5681 5683 5684 5686 5685 5686 5687 5689 5691 5691 5692 5693 5691 5690 5688 5687 5686 5685 5685 5686 5686 5686 5688 5688 5688 5689 5686 5685 5683 5682 5682 5680 5680 5680
5641 5644 5649 5651 5655 5659 5663 5667 5671 5674 5677 5679 5681 5682 5682 5683 5683 5683 5684 5687 5689 5688 5687 5683 5683 5681 5681 5681 5682 5685 5685 5683 5684 5686 5686 5684 5682 5679 5679 5678 5678 5676 5676
5631 5635 5639 5643 5645 5649 5654 5659 5664 5668 5670 5673 5674 5674 5676 5677 5678 5677 5678 5680 5683 5682 5680 5678 5676 5677 5676 5676 5677 5677 5680 5680 5682 5681 5682 5681 5679 5677 5675 5676 5675 5675 5673
5621 5625 5630 5634 5636 5640 5644 5649 5653 5657 5661 5664 5666 5666 5665 5667 5670 5669 5670 5672 5671 5674 5673 5672 5671 5671 5673 5673 5673 5673 5673 5675 5679 5679 5679 5677 5677 5675 5673 5673 5671 5672 5672
5611 5615 5619 5624 5628 5631 5633 5636 5640 5645 5649 5653 5655 5655 5655 5655 5657 5660 5661 5662 5663 5665 5669 5669 5668 5664 5663 5667 5662 5663 5664 5666 5668 5672 5673 5672 5672 5672 5669 5669 5669 5668 5667
5604 5606 5608 5611 5615 5619 5622 5624 5625 5629 5635 5640 5641 5643 5642 5642 5644 5646 5649 5651 5654 5654 5656 5659 5661 5661 5660 5660 5656 5652 5654 5656 5660 5668 5668 5667 5667 5665 5665 5666 5664 5664 5663
5595 5596 5597 5600 5605 5608 5609 5609 5610 5611 5615 5618 5618 5621 5624 5624 5626 5629 5631 5635 5639 5642 5647 5651 5658 5653 5661 5658 5654 5650 5643 5652 5653 5660 5663 5662 5661 5658 5659 5660 5659 5660 5659
5581 5582 5586 5592 5597 5600 5600 5599 5597 5594 5596 5597 5597 5600 5605 5607 5609 5612 5615 5618 5622 5628 5634 5641 5650 5654 5653 5650 5646 5647 5646 5648 5644 5642 5649 5650 5653 5653 5652 5651 5652 5653 5653
5570 5574 5578 5585 5591 5593 5592 5591 5589 5582 5579 5580 5578 5579 5584 5587 5591 5595 5597 5601 5606 5612 5623 5630 5637 5644 5647 5645 5644 5640 5638 5639 5637 5636 5635 5639 5643 5647 5643 5643 5645 5648 5647
5562 5565 5570 5577 5588 5587 5585 5583 5576 5570 5563 5560 5562 5562 5564 5571 5574 5576 5580 5585 5592 5600 5609 5618 5625 5630 5634 5635 5639 5640 5639 5636 5637 5630 5629 5631 5633 5641 5635 5634 5639 5640 5639